Location: Newark
(30.3239°N, 81.6375°W)
Time: 16:00:36
(UTC+00:00)

LightSail 2 - Visible Passes

Search period start: 28 January 2020 00:00
Search period end: 07 February 2020 00:00
Orbit: 704 x 719 km, 24.0° (Epoch: 27 January)

Date Brightness Start Highest point End Pass type
(mag) Time Alt. Az. Time Alt. Az. Time Alt. Az.
28 Jan 7.6 01:29:18 10° SW 01:31:37 13° SSW 01:31:51 13° SSW visible
29 Jan 7.5 00:29:58 10° WSW 00:33:17 17° SSW 00:36:36 10° SSE visible
29 Jan 7.3 23:31:03 10° WSW 23:34:56 22° SSW 23:38:49 10° SSE visible
31 Jan 7.9 00:20:11 10° SW 00:21:28 11° SSW 00:22:45 10° S visible
